DW5247 Lemo FI current weather conditions

sailwx.info

Air temperature 10.6° C
Dewpoint -1.8° C

Last reported at 2017-May-26 16:02 UTC.
Time now 2017-May-26 16:51 UTC

Location: N 62°41' E 029°49'.
View on Google Maps.

See reports from other nearby stations

  
Tides and Currents Weather Stations Pressure Air Temp Water Temp Dewpoint Dewpoint Depression Visibility Wind Speed Wind Dir Waves Ship Positions
date/time (UTC)wind fromknots sea level pressurealtimeterstation pressurevisibilityair tempwater tempwave heightnotes
2017-May-26 16:02 10.6
2017-May-26 15:57 11.1
2017-May-26 15:52 11.1
2017-May-26 15:47 11.7
2017-May-26 15:42 11.7
2017-May-26 15:37 11.7
2017-May-26 15:32 11.7
2017-May-26 15:27 11.7
2017-May-26 15:22 12.2
2017-May-26 15:17 12.2
2017-May-26 15:12 12.2
2017-May-26 15:07 12.8
2017-May-26 15:02 12.8
2017-May-26 14:57 12.8
2017-May-26 14:52 12.8
2017-May-26 14:47 12.8
2017-May-26 14:42 12.8
2017-May-26 14:37 12.8
2017-May-26 14:32 13.3
2017-May-26 14:27 13.3
2017-May-26 14:22 13.3
2017-May-26 14:17 13.3
2017-May-26 14:12 13.9
2017-May-26 14:07 13.9
2017-May-26 14:02 13.9
2017-May-26 13:57 13.9
2017-May-26 13:52 13.9
2017-May-26 13:47 13.9
2017-May-26 13:42 14.4
2017-May-26 13:37 14.4
2017-May-26 13:32 135 6 gusting 7 14.4
2017-May-26 13:27 135 6 gusting 7 13.9
2017-May-26 13:22 135 6 gusting 11 13.9
2017-May-26 13:17 135 6 gusting 13 13.9
2017-May-26 13:12 135 6 gusting 13 13.9
2017-May-26 13:07 113 6 gusting 13 13.9
2017-May-26 13:02 135 6 14.4
2017-May-26 12:57 14.4
2017-May-26 12:52 14.4
2017-May-26 12:47 14.4
2017-May-26 12:42 14.4
2017-May-26 12:37 14.4
2017-May-26 12:32 15.0
2017-May-26 12:27 15.0
2017-May-26 12:22 15.0
2017-May-26 12:17 135 6 gusting 13 15.0
2017-May-26 12:12 135 6 gusting 13 15.0
2017-May-26 12:07 135 6 gusting 13 15.0
2017-May-26 12:02 135 6 gusting 7 15.0
2017-May-26 11:57 113 6 gusting 7 14.4
2017-May-26 11:52 113 6 gusting 12 15.0
2017-May-26 11:47 113 6 gusting 12 15.0
2017-May-26 11:42 135 6 gusting 12 15.0
2017-May-26 11:37 158 6 gusting 10 15.0
2017-May-26 11:32 113 6 gusting 10 15.0
2017-May-26 11:27 135 6 gusting 10 15.0
2017-May-26 11:22 135 5 gusting 10 15.0
2017-May-26 11:17 068 5 gusting 10 15.0
2017-May-26 11:12 270 6 gusting 10 15.0
2017-May-26 11:07 180 6 gusting 11 14.4
2017-May-26 11:02 135 6 gusting 11 15.0
2017-May-26 10:57 113 5 gusting 9 14.4
2017-May-26 10:52 180 6 gusting 9 14.4
2017-May-26 10:47 135 6 gusting 9 14.4
2017-May-26 10:42 090 6 gusting 8 14.4
2017-May-26 10:37 113 6 gusting 7 14.4
2017-May-26 10:32 068 5 gusting 11 14.4
2017-May-26 10:27 135 5 gusting 11 14.4
2017-May-26 10:22 135 6 gusting 11 14.4
2017-May-26 10:17 045 6 gusting 9 14.4
2017-May-26 10:12 158 6 gusting 9 14.4
2017-May-26 10:07 113 6 gusting 9 14.4
2017-May-26 10:02 135 5 gusting 7 14.4
2017-May-26 09:57 113 5 gusting 7 13.9
2017-May-26 09:52 135 6 gusting 7 13.9
2017-May-26 09:47 135 5 gusting 7 13.9
2017-May-26 09:42 135 5 gusting 7 13.3
2017-May-26 09:37 113 5 gusting 7 13.3
2017-May-26 09:32 158 6 gusting 7 13.3
2017-May-26 09:27 113 5 gusting 6 13.3
2017-May-26 09:22 248 4 gusting 6 13.3
2017-May-26 09:17 023 4 gusting 5 12.8
2017-May-26 09:12 135 3 gusting 6 12.2
2017-May-26 09:07 135 3 gusting 6 12.2
2017-May-26 09:02 113 3 gusting 6 12.2
2017-May-26 08:57 158 3 gusting 6 12.8
2017-May-26 08:52 180 3 gusting 6 12.2
2017-May-26 08:47 045 3 gusting 6 12.8
2017-May-26 08:42 113 4 gusting 11 12.8
2017-May-26 08:37 135 3 gusting 11 12.8
2017-May-26 08:32 135 5 gusting 11 12.8
2017-May-26 08:27 135 5 gusting 10 12.8
2017-May-26 08:22 113 4 gusting 10 12.8
2017-May-26 08:17 113 4 gusting 9 12.8
2017-May-26 08:12 068 5 gusting 10 12.8
2017-May-26 08:07 068 6 gusting 10 12.8
2017-May-26 08:02 023 4 gusting 10 12.8
2017-May-26 07:57 158 4 gusting 8 12.8
2017-May-26 07:52 248 4 gusting 6 12.2
2017-May-26 07:47 090 4 gusting 8 12.2
2017-May-26 07:42 113 4 gusting 8 12.2
2017-May-26 07:37 180 5 gusting 8 11.7
2017-May-26 07:32 158 5 gusting 7 11.7
2017-May-26 07:27 113 4 gusting 9 11.7
2017-May-26 07:22 135 4 gusting 9 11.7
2017-May-26 07:17 090 4 gusting 6 11.7
2017-May-26 07:12 068 3 gusting 6 11.7
2017-May-26 07:07 113 3 gusting 6 11.7
2017-May-26 07:02 113 4 gusting 6 11.7
2017-May-26 06:57 090 4 gusting 7 11.7
2017-May-26 06:52 113 3 gusting 7 11.7
2017-May-26 06:47 270 4 gusting 7 11.7
2017-May-26 06:42 113 4 gusting 10 11.7
2017-May-26 06:37 045 4 gusting 10 11.7
2017-May-26 06:32 135 4 gusting 8 11.7
2017-May-26 06:27 113 3 gusting 8 11.1
2017-May-26 06:22 158 3 gusting 6 11.1
2017-May-26 06:17 045 3 gusting 4 11.1
2017-May-26 06:12 068 2 gusting 6 11.1
2017-May-26 06:07 090 2 gusting 6 11.1
2017-May-26 06:02 090 3 gusting 7 11.1
2017-May-26 05:57 023 4 gusting 7 11.1
2017-May-26 05:52 068 4 gusting 8 11.1
2017-May-26 05:47 113 3 gusting 8 11.1
2017-May-26 05:42 068 4 gusting 11 11.1
2017-May-26 05:37 113 4 gusting 11 11.1
2017-May-26 05:32 023 4 gusting 11 11.1
2017-May-26 05:27 113 3 gusting 6 11.1
2017-May-26 05:22 045 3 gusting 6 11.1
2017-May-26 05:17 068 3 gusting 6 10.6
2017-May-26 05:12 068 3 gusting 6 10.6
2017-May-26 05:07 135 3 gusting 7 10.6
2017-May-26 05:02 113 4 gusting 7 10.0
2017-May-26 04:57 068 3 gusting 6 10.0
2017-May-26 04:52 090 3 gusting 6 10.0
2017-May-26 04:47 135 3 gusting 6 10.0
2017-May-26 04:42 135 2 gusting 7 10.0
2017-May-26 04:37 135 3 gusting 8 10.0
2017-May-26 04:32 113 4 gusting 8 10.0
2017-May-26 04:27 113 4 gusting 6 10.0
2017-May-26 04:22 068 4 gusting 6 10.0
2017-May-26 04:17 068 4 gusting 6 10.0
2017-May-26 04:12 068 4 gusting 6 9.4
2017-May-26 04:07 180 3 gusting 6 9.4
2017-May-26 04:02 090 3 gusting 6 9.4
2017-May-26 03:57 023 3 gusting 6 8.9
2017-May-26 03:52 090 3 gusting 6 8.9
2017-May-26 03:47 135 3 gusting 6 8.9
2017-May-26 03:42 068 2 gusting 6 8.9
2017-May-26 03:37 158 2 gusting 5 8.3
2017-May-26 03:32 113 3 gusting 5 8.3
2017-May-26 03:27 113 3 gusting 5 8.3
2017-May-26 03:22 090 3 gusting 5 8.3
2017-May-26 03:17 090 2 gusting 5 8.3
2017-May-26 03:12 068 3 gusting 7 7.8
2017-May-26 03:07 068 3 gusting 7 7.8
2017-May-26 03:02 113 3 gusting 7 8.3
2017-May-26 02:57 113 2 gusting 5 7.8
2017-May-26 02:52 090 2 gusting 5 7.8
2017-May-26 02:47 113 1 gusting 5 7.8
2017-May-26 02:42 068 2 gusting 5 7.8
2017-May-26 02:37 090 2 gusting 5 7.8
2017-May-26 02:32 135 3 gusting 5 7.8
2017-May-26 02:27 090 3 gusting 5 7.8
2017-May-26 02:22 090 2 gusting 3 7.8
2017-May-26 02:17 068 2 gusting 4 7.8
2017-May-26 02:12 068 1 gusting 4 7.2
2017-May-26 02:07 068 1 gusting 4 7.2
2017-May-26 02:02 068 1 gusting 3 7.2
2017-May-26 01:57 045 0 gusting 3 7.2
2017-May-26 01:52 113 0 gusting 2 7.8
2017-May-26 01:47 113 0 gusting 2 7.8
2017-May-26 01:42 068 0 gusting 3 7.8
2017-May-26 01:37 113 0 gusting 3 7.8
2017-May-26 01:32 068 0 gusting 3 7.8
2017-May-26 01:27 090 0 gusting 1 7.8
2017-May-26 01:22 068 0 gusting 1 7.8
2017-May-26 01:17 045 0 gusting 1 7.8
2017-May-26 01:12 023 0 gusting 1 7.8
2017-May-26 01:07 023 0 gusting 1 7.8
2017-May-26 01:02 135 0 gusting 3 7.8
2017-May-26 00:57 135 0 gusting 3 7.8
2017-May-26 00:52 135 0 gusting 3 7.8
2017-May-26 00:47 113 0 gusting 2 7.8
2017-May-26 00:42 113 0 gusting 2 7.8
2017-May-26 00:37 113 0 gusting 2 8.3
2017-May-26 00:32 113 1 gusting 2 7.8
2017-May-26 00:27 113 1 gusting 3 7.8
2017-May-26 00:22 090 0 gusting 3 8.3
2017-May-26 00:17 090 0 gusting 3 8.3
2017-May-26 00:12 113 1 gusting 4 8.3
2017-May-26 00:07 113 1 gusting 4 8.3
2017-May-26 00:02 113 1 gusting 4 8.3
2017-May-25 23:57 113 1 gusting 2 8.3
2017-May-25 23:52 113 1 gusting 3 8.3
2017-May-25 23:47 113 3 gusting 3 8.3
2017-May-25 23:42 113 3 gusting 4 8.3
2017-May-25 23:37 135 3 gusting 4 8.3
2017-May-25 23:32 135 3 gusting 4 8.3
2017-May-25 23:27 068 2 gusting 7 8.3
2017-May-25 23:22 090 2 gusting 7 8.3
2017-May-25 23:17 113 3 gusting 5 8.3
2017-May-25 23:12 113 2 gusting 5 8.3
2017-May-25 23:07 090 2 gusting 5 8.3
2017-May-25 23:02 113 2 gusting 5 8.9
2017-May-25 22:57 090 2 gusting 5 8.9
2017-May-25 22:52 090 2 gusting 5 8.3
2017-May-25 22:47 158 2 gusting 5 8.9
2017-May-25 22:42 135 1 gusting 5 8.9
2017-May-25 22:37 113 2 gusting 5 8.9
2017-May-25 22:32 068 2 gusting 4 8.9
2017-May-25 22:27 113 2 gusting 4 8.9
2017-May-25 22:22 113 2 gusting 1 8.9
2017-May-25 22:17 068 2 gusting 1 8.9
2017-May-25 22:12 068 2 gusting 1 8.9
2017-May-25 22:07 068 2 8.9
2017-May-25 22:02 8.9
2017-May-25 21:57 8.9
2017-May-25 21:52 8.9
2017-May-25 21:47 8.9
2017-May-25 21:42 8.9
2017-May-25 21:37 8.9
2017-May-25 21:32 8.9
2017-May-25 21:27 8.9
2017-May-25 21:22 8.9
2017-May-25 21:17 8.9
2017-May-25 21:12 8.9
2017-May-25 21:07 8.9
2017-May-25 20:57 8.9
2017-May-25 20:52 8.9
2017-May-25 20:47 8.9
2017-May-25 20:42 8.9
2017-May-25 20:37 8.9
2017-May-25 20:32 8.9
2017-May-25 20:27 9.4
2017-May-25 20:22 9.4
2017-May-25 20:17 9.4
2017-May-25 20:12 9.4
2017-May-25 20:07 9.4
2017-May-25 20:02 9.4
2017-May-25 19:57 9.4
2017-May-25 19:52 10.0
2017-May-25 19:47 10.0
2017-May-25 19:42 10.0
2017-May-25 19:37 10.6
2017-May-25 19:32 10.6
2017-May-25 19:27 10.6
2017-May-25 19:22 10.6
2017-May-25 19:17 10.6
2017-May-25 19:12 10.6
2017-May-25 19:07 10.6
2017-May-25 19:02 11.1
2017-May-25 18:57 11.1
2017-May-25 18:52 11.1
2017-May-25 18:47 11.1
2017-May-25 18:42 11.1
2017-May-25 18:37 045 11.1
2017-May-25 18:32 045 11.1
2017-May-25 18:27 045 11.1
2017-May-25 18:22 11.1
2017-May-25 18:17 11.1
2017-May-25 18:12 11.1
2017-May-25 18:07 11.1
2017-May-25 18:02 11.1
2017-May-25 17:57 11.1
2017-May-25 17:52 11.1
2017-May-25 17:47 11.1
2017-May-25 17:42 11.1
2017-May-25 17:37 11.1
2017-May-25 17:32 11.1
2017-May-25 17:27 11.1
2017-May-25 17:22 11.1
2017-May-25 17:17 11.1
2017-May-25 17:12 11.1
2017-May-25 17:07 11.1
2017-May-25 17:02 11.1
2017-May-25 16:57 11.1
2017-May-25 16:52 11.1
2017-May-25 16:47 11.1
2017-May-25 16:42 11.1
2017-May-25 16:37 11.7
2017-May-25 16:32 11.7
2017-May-25 16:27 11.7
2017-May-25 16:22 11.7
2017-May-25 16:17 11.7
2017-May-25 16:12 11.7
2017-May-25 16:07 11.7
2017-May-25 16:02 11.7
2017-May-25 15:57 11.7
2017-May-25 15:52 11.7
2017-May-25 15:47 11.7
2017-May-25 15:42 12.2
2017-May-25 15:37 12.2
2017-May-25 15:32 12.2
2017-May-25 15:27 12.2
2017-May-25 15:22 12.2
2017-May-25 15:17 12.2
2017-May-25 15:12 12.8
2017-May-25 15:07 12.2
2017-May-25 15:02 12.8
2017-May-25 14:57 12.8
2017-May-25 14:52 12.8
2017-May-25 14:47 12.8
2017-May-25 14:42 12.8
2017-May-25 14:37 13.3
2017-May-25 14:32 13.3
2017-May-25 14:27 13.3
2017-May-25 14:22 13.3
2017-May-25 14:17 13.9
2017-May-25 14:12 13.9
2017-May-25 14:07 14.4
2017-May-25 14:02 14.4
2017-May-25 13:57 15.0
2017-May-25 13:52 15.6
2017-May-25 13:47 15.6
2017-May-25 13:42 16.1
2017-May-25 13:37 16.1
2017-May-25 13:32 16.1
2017-May-25 13:27 16.7
2017-May-25 13:22 16.7
2017-May-25 13:17 16.7
2017-May-25 13:12 16.7
2017-May-25 13:07 16.7
2017-May-25 13:02 17.2
2017-May-25 12:57 17.2
2017-May-25 12:52 17.8
2017-May-25 12:47 17.8
2017-May-25 12:42 18.3
2017-May-25 12:37 18.9
2017-May-25 12:32 18.9
2017-May-25 12:27 19.4
2017-May-25 12:22 19.4
2017-May-25 12:17 19.4
2017-May-25 12:12 19.4
2017-May-25 12:07 19.4
2017-May-25 12:02 20.0
2017-May-25 11:57 20.0
2017-May-25 11:52 20.0
2017-May-25 11:47 20.0
2017-May-25 11:42 20.0
2017-May-25 11:37 20.0
2017-May-25 11:32 20.0
2017-May-25 11:27 20.0
2017-May-25 11:22 20.0
2017-May-25 11:17 20.0
2017-May-25 11:12 20.0
2017-May-25 11:07 19.4
2017-May-25 11:02 19.4
2017-May-25 10:57 19.4
2017-May-25 10:52 19.4
2017-May-25 10:47 18.9
2017-May-25 10:42 18.9
2017-May-25 10:37 18.9
2017-May-25 10:32 18.9
2017-May-25 10:27 18.9
2017-May-25 10:22 18.9
2017-May-25 10:17 18.9
2017-May-25 10:12 18.9
2017-May-25 10:07 18.9
2017-May-25 10:02 18.9
2017-May-25 09:57 18.9
2017-May-25 09:52 18.3
2017-May-25 09:47 18.3
2017-May-25 09:42 18.3
2017-May-25 09:37 18.3
2017-May-25 09:32 17.8
2017-May-25 09:27 17.8
2017-May-25 09:22 17.8
2017-May-25 09:17 17.8
2017-May-25 09:12 17.8
2017-May-25 09:07 17.8
2017-May-25 09:02 17.8
2017-May-25 08:57 17.8
2017-May-25 08:52 17.8
2017-May-25 08:47 17.8
2017-May-25 08:42 17.8
2017-May-25 08:37 17.8
2017-May-25 08:32 17.8
2017-May-25 08:27 17.8
2017-May-25 08:22 17.8
2017-May-25 08:17 17.2
2017-May-25 08:12 17.2
2017-May-25 08:07 16.7
2017-May-25 08:02 16.7
2017-May-25 07:57 16.7
2017-May-25 07:52 023 4 gusting 6 16.1
2017-May-25 07:47 023 4 gusting 6 15.6
2017-May-25 07:42 023 4 gusting 6 15.6
2017-May-25 07:37 023 4 gusting 6 15.0
2017-May-25 07:32 023 4 gusting 5 15.0
2017-May-25 07:27 023 3 gusting 5 15.0
2017-May-25 07:22 15.0
2017-May-25 07:17 338 3 gusting 5 15.0
2017-May-25 07:12 315 3 gusting 5 15.0
2017-May-25 07:07 023 2 gusting 5 15.0
2017-May-25 07:02 023 2 gusting 5 15.0
2017-May-25 06:57 315 3 gusting 5 15.0
2017-May-25 06:52 15.0
2017-May-25 06:47 14.4
2017-May-25 06:42 338 3 gusting 6 14.4
2017-May-25 06:37 315 2 gusting 6 15.0
2017-May-25 06:32 293 2 gusting 6 15.0
2017-May-25 06:27 023 3 gusting 6 15.0
2017-May-25 06:22 315 3 gusting 5 15.0
2017-May-25 06:17 15.0
2017-May-25 06:12 225 3 gusting 6 15.0
2017-May-25 06:07 338 3 gusting 6 15.0
2017-May-25 06:02 293 3 gusting 5 15.0
2017-May-25 05:57 338 3 gusting 6 15.0
2017-May-25 05:52 158 3 gusting 7 15.0
2017-May-25 05:47 023 3 gusting 7 15.0
2017-May-25 05:42 15.0
2017-May-25 05:37 338 4 gusting 6 15.0
2017-May-25 05:32 023 4 gusting 7 15.0
2017-May-25 05:27 315 4 gusting 7 15.6
2017-May-25 05:22 15.6
2017-May-25 05:17 023 3 gusting 6 15.6
2017-May-25 05:12 338 3 gusting 6 15.0
2017-May-25 05:07 045 3 gusting 6 15.0
2017-May-25 05:02 315 3 gusting 6 15.0
2017-May-25 04:57 023 4 gusting 6 14.4
2017-May-25 04:52 338 3 gusting 4 14.4
2017-May-25 04:47 315 3 gusting 5 14.4
2017-May-25 04:42 315 2 gusting 6 13.9
2017-May-25 04:37 293 3 gusting 6 13.3
2017-May-25 04:32 270 3 gusting 5 13.3
2017-May-25 04:27 338 2 gusting 5 13.3
2017-May-25 04:22 315 1 gusting 5 12.8
2017-May-25 04:17 338 1 gusting 4 12.2
2017-May-25 04:12 315 1 gusting 4 12.2
2017-May-25 04:07 248 1 gusting 4 11.7
2017-May-25 04:02 315 1 gusting 3 11.7
2017-May-25 03:57 315 1 gusting 4 11.7
2017-May-25 03:52 315 1 gusting 4 11.1
2017-May-25 03:47 315 1 gusting 4 11.1
2017-May-25 03:42 270 1 gusting 4 10.6
2017-May-25 03:37 10.6
2017-May-25 03:32 270 1 gusting 3 10.6
2017-May-25 03:27 315 1 gusting 3 10.0
2017-May-25 03:22 315 1 gusting 2 10.0
2017-May-25 03:17 315 1 gusting 2 9.4
2017-May-25 03:12 293 0 gusting 2 9.4
2017-May-25 03:07 293 0 gusting 2 8.9
2017-May-25 03:02 293 0 gusting 2 8.9
2017-May-25 02:57 248 0 gusting 3 8.3
2017-May-25 02:52 225 0 gusting 3 8.3
2017-May-25 02:47 248 0 gusting 3 7.8
2017-May-25 02:42 315 0 gusting 1 7.8
2017-May-25 02:37 203 7.8
2017-May-25 02:32 203 7.8
2017-May-25 02:27 338 7.8
2017-May-25 02:22 248 7.8
2017-May-25 02:17 203 7.8
2017-May-25 02:12 225 7.2
2017-May-25 02:07 270 7.2
2017-May-25 02:02 248 7.2
2017-May-25 01:57 248 0 gusting 1 7.2
2017-May-25 01:52 248 0 gusting 1 7.2
2017-May-25 01:47 270 0 gusting 1 7.2
2017-May-25 01:42 248 0 gusting 1 6.7
2017-May-25 01:37 248 0 gusting 2 6.7
2017-May-25 01:32 248 0 gusting 2 6.7
2017-May-25 01:27 248 0 gusting 1 6.7
2017-May-25 01:22 225 0 gusting 1 6.7
2017-May-25 01:17 270 0 gusting 2 6.7
2017-May-25 01:12 248 0 gusting 2 6.7
2017-May-25 01:07 248 0 gusting 1 6.7
2017-May-25 01:02 270 6.7
2017-May-25 00:57 270 6.7
2017-May-25 00:52 248 6.7
2017-May-25 00:47 248 7.2
2017-May-25 00:42 203 7.2
2017-May-25 00:37 225 7.2
2017-May-25 00:32 225 0 gusting 1 7.2
2017-May-25 00:27 248 0 7.2
2017-May-25 00:22 248 7.2
2017-May-25 00:17 248 7.8
2017-May-25 00:12 225 7.8
2017-May-25 00:07 248 7.8
2017-May-25 00:02 248 7.8
2017-May-24 23:57 248 8.3
2017-May-24 23:52 248 7.8
2017-May-24 23:47 248 8.3
2017-May-24 23:42 248 8.3
2017-May-24 23:37 248 8.3
2017-May-24 23:32 248 8.3
2017-May-24 23:27 248 8.3
2017-May-24 23:22 248 8.9
2017-May-24 23:17 248 8.9
2017-May-24 23:12 248 8.9
2017-May-24 23:07 248 8.9
2017-May-24 23:02 248 8.9
2017-May-24 22:57 248 8.9
2017-May-24 22:52 225 8.9
2017-May-24 22:47 225 9.4
2017-May-24 22:42 225 9.4
2017-May-24 22:37 203 9.4
2017-May-24 22:32 203 9.4
2017-May-24 22:27 203 9.4
2017-May-24 22:22 203 9.4
2017-May-24 22:17 203 9.4
2017-May-24 22:12 203 9.4
2017-May-24 22:07 203 10.0
2017-May-24 22:02 180 10.0
2017-May-24 21:57 158 10.0
2017-May-24 21:52 023 10.0
2017-May-24 21:47 023 10.0
2017-May-24 21:42 248 10.0
2017-May-24 21:37 248 10.0
2017-May-24 21:32 248 10.0
2017-May-24 21:27 225 10.6
2017-May-24 21:22 270 10.6
2017-May-24 21:17 248 10.6
2017-May-24 21:12 270 10.6
2017-May-24 21:07 203 10.6
2017-May-24 20:57 270 10.6
2017-May-24 20:52 293 10.6
2017-May-24 20:47 293 10.6
2017-May-24 20:42 293 10.6
2017-May-24 20:37 10.6
2017-May-24 20:32 10.6
2017-May-24 20:27 10.6
2017-May-24 20:22 11.1
2017-May-24 20:17 10.6
2017-May-24 20:12 11.1
2017-May-24 20:07 11.1
2017-May-24 20:02 11.1
2017-May-24 19:57 11.7
2017-May-24 19:52 11.7
2017-May-24 19:47 068 11.7
2017-May-24 19:42 068 11.7
2017-May-24 19:37 068 12.2